軌道要素
Epoch 2011 July 18.0 TT = JDT 2455760.5
T 2011 July 10.99589 TT MPC
q 3.7527969 (2000.0) P Q
n 0.07604064 Peri. 356.15918 +0.56222245 -0.81817245
a 5.5178793 Node 59.59197 +0.76241654 +0.45639650
e 0.3198842 Incl. 8.02591 +0.32035439 +0.34970856
P 13.0
From 33 observations 2010 Oct. 6-2011 Jan. 2, mean residual 0".7.
|